FLOCK 4A-1 (44079 NORAD) Tracking and Keplerian Element Data

This shows tracking and keplerian element data for the satellite.

Feedback or suggestion? Click here.




ElementValue
Catalog44079
NameFLOCK 4A-1
Epoch Orbit309
Epoch Day111.73113398
Epoch Year2019
RAAN172.0993
Inclination97.4618
Eccentricity0.0012691
Argument of Perigee197.8312
Mean Anonmoly162.248
Mean Motion15.21130583
Decay Rate7.66E-06
L11 44079U 19018B 19111.73113398 .00000766 00000-0 37529-4 0 9990
L22 44079 97.4618 172.0993 0012691 197.8312 162.2480 15.21130583 3096

Live tracking and technical data element details for FLOCK 4A-1 (NORAD 44079). FLOCK 4A-1 can be tracked NOW for your location showing map with azimuth and elevation plus other details from your city location.

Track the satellite on the map from your city or location and see movement details for azimuth, elevation, latitude, longitude, range, height, and movement on the map or in text.







IsCatalogInMostPopularTable: catalog: 44079, numindb: 4
Update: records affected: 1



GetName: 44079 FLOCK 4A-1

Hit Count: updated at: Tue, 23 Apr 2019 02:24:23 GMT